This is the latest recevied weather packets stored in our database for station/object DF7ER-12. If no packets are shown the sender has not sent any weather packets the latest 10 day(s).
| Time | Temp. | Humidity | Pressure | Rain* | Wind** | Luminosity | Snow |
|---|---|---|---|---|---|---|---|
| 1788517865 | 23.89° C | 91% | 996 hPa | - | - | - | - |
| 1788517565 | 23.89° C | 90% | 996 hPa | - | - | - | - |
| 1788517265 | 24.44° C | 90% | 996.1 hPa | - | - | - | - |
| 1788516965 | 23.89° C | 90% | 996.1 hPa | - | - | - | - |
| 1788516665 | 24.44° C | 90% | 996.1 hPa | - | - | - | - |
| 1788516385 | 24.44° C | 90% | 996.3 hPa | - | - | - | - |
| 1788516065 | 23.89° C | 90% | 996.2 hPa | - | - | - | - |
| 1788515765 | 24.44° C | 90% | 996.4 hPa | - | - | - | - |
| 1788515465 | 24.44° C | 89% | 996.4 hPa | - | - | - | - |
| 1788515165 | 23.89° C | 90% | 996.4 hPa | - | - | - | - |
| 1788514865 | 23.89° C | 90% | 996.4 hPa | - | - | - | - |
| 1788514565 | 23.89° C | 91% | 996.5 hPa | - | - | - | - |
| 1788514265 | 23.89° C | 91% | 996.7 hPa | - | - | - | - |
| 1788513965 | 23.33° C | 92% | 997.1 hPa | - | - | - | - |
| 1788513665 | 23.89° C | 92% | 997.2 hPa | - | - | - | - |
| 1788513365 | 23.33° C | 92% | 997.2 hPa | - | - | - | - |
| 1788513065 | 23.33° C | 93% | 997.3 hPa | - | - | - | - |
| 1788512765 | 23.89° C | 92% | 997.2 hPa | - | - | - | - |
| 1788512465 | 23.89° C | 93% | 997.3 hPa | - | - | - | - |
| 1788512165 | 23.89° C | 92% | 997.2 hPa | - | - | - | - |
| 1788511865 | 23.89° C | 94% | 997.2 hPa | - | - | - | - |
| 1788511565 | 23.89° C | 92% | 997.3 hPa | - | - | - | - |
| 1788511265 | 23.33° C | 95% | 997.3 hPa | - | - | - | - |
| 1788510965 | 23.89° C | 94% | 997.4 hPa | - | - | - | - |
| 1788510665 | 23.33° C | 94% | 997.4 hPa | - | - | - | - |
* Rain since midnight (hover to see other rain measurements)
** Current wind speed in m/s (hover to see current wind gust speed)